Location: Ocean City
(38.3360°N, 75.0850°W)
Time: 15:43:38
(UTC-04:00)

STARS - Pass Details

Date: 19 May 2019
Orbit: 625 x 640 km, 98.3° (Epoch: 17 June)

Event Time Altitude Azimuth Distance (km) Brightness Sun altitude
Rises 21:53:13 0° 354° (N) 2,948 ? -17.6°
Reaches altitude 10° 21:56:07 10° 333° (NNW) 2,032 ? -18.0°
Maximum altitude 21:58:51 16° 295° (WNW) 1,642 ? -18.4°
Drops below altitude 10° 22:01:35 10° 256° (WSW) 2,018 ? -18.7°
Sets 22:04:28 0° 236° (SW) 2,918 ? -19.1°
